Weather History for Cordova, AK

Change the Weather History Date:

Monday, January 21, 2013

  Actual Average Record
Temperature  
Mean Temperature 40 °F -  
Max Temperature 45 °F 32 °F 58 °F (1961)
Min Temperature 34 °F 18 °F -22 °F (1989)
Degree Days  
Heating Degree Days 26    
Moisture  
Dew Point 33 °F    
Average Humidity 78    
Maximum Humidity 96    
Minimum Humidity 63    
Precipitation  
Precipitation 0.01 in - - ()
Snow  
Snow 0.00 in - - ()
Snow Depth 3.00 in    
Sea Level Pressure  
Sea Level Pressure 29.85 in    
Wind  
Wind Speed 3 mph (East)    
Max Wind Speed 14 mph    
Max Gust Speed 28 mph    
Visibility 10 miles    
Events Rain    
Averages and records for this station are not official NWS values.
T = Trace of Precipitation, MM = Missing Value Source: NWS Daily Summary

Daily Weather History Graph

Daily Weather History Graph

Search for Another Location

Airport:

Trip Planner

Search our weather history database for the weather conditions in past years. The results will help you decide how hot, cold, wet, or windy it might be!

Date:

Astronomy

Jan. 21, 2013 Rise Set
Actual Time 9:21 AM AKST 4:25 PM AKST
Civil Twilight 8:29 AM AKST 5:17 PM AKST
Nautical Twilight 7:36 AM AKST 6:11 PM AKST
Astronomical Twilight 6:45 AM AKST 7:01 PM AKST
Moon 12:03 PM AKST (1/21) 5:04 AM AKST (1/21)
Length of Visible Light 8h 47m
Length of Day
7h 04m
Waxing Gibbous, 76% of the Moon is Illuminated
Jan 21
Waxing Gibbous
Jan 26
Full
Feb 3
Last Quarter
Feb 9
New
Feb 17
First Quarter

Hourly Weather History & Observations

Time (AKST) Temp. Windchill Dew Point Humidity Pressure Visibility Wind Dir Wind Speed Gust Speed Precip Events Conditions
12:53 AM 42.1 °F - 34.0 °F 73% 29.93 in 10.0 mi Calm Calm - N/A   Overcast
1:53 AM 35.1 °F - 34.0 °F 96% 29.93 in 10.0 mi Calm Calm - N/A   Overcast
3:53 AM 36.0 °F - 33.1 °F 89% 29.91 in 10.0 mi Calm Calm - N/A   Overcast
4:53 AM 34.0 °F - 33.1 °F 96% 29.90 in 10.0 mi Calm Calm - N/A   Overcast
5:53 AM 34.0 °F - 33.1 °F 96% 29.90 in 10.0 mi Calm Calm - N/A   Overcast
6:53 AM 34.0 °F - 32.0 °F 92% 29.88 in 10.0 mi Calm Calm - N/A   Overcast
7:53 AM 34.0 °F - 32.0 °F 92% 29.87 in 10.0 mi Calm Calm - N/A   Overcast
8:53 AM 34.0 °F - 33.1 °F 96% 29.87 in 10.0 mi Calm Calm - N/A   Overcast
9:53 AM 34.0 °F - 32.0 °F 92% 29.87 in 10.0 mi Calm Calm - N/A   Overcast
10:53 AM 36.0 °F - 33.1 °F 89% 29.87 in 10.0 mi Calm Calm - N/A   Overcast
11:53 AM 43.0 °F 41.3 °F 33.1 °F 68% 29.86 in 10.0 mi Variable 3.5 mph - N/A   Overcast
12:53 PM 44.1 °F - 33.1 °F 65% 29.85 in 10.0 mi Calm Calm - N/A   Overcast
1:53 PM 44.1 °F 40.8 °F 32.0 °F 63% 29.84 in 10.0 mi East 5.8 mph - N/A   Overcast
2:53 PM 45.0 °F 40.1 °F 33.1 °F 63% 29.82 in 10.0 mi East 9.2 mph - N/A   Overcast
3:53 PM 45.0 °F 39.3 °F 35.1 °F 68% 29.82 in 10.0 mi ESE 11.5 mph 23.0 mph N/A   Overcast
4:53 PM 44.1 °F 37.4 °F 35.1 °F 71% 29.81 in 10.0 mi ESE 13.8 mph 25.3 mph 0.00 in Rain Light Rain
5:53 PM 42.1 °F 37.1 °F 35.1 °F 76% 29.81 in 10.0 mi East 8.1 mph - 0.01 in Rain Light Rain
6:53 PM 44.1 °F 37.7 °F 34.0 °F 68% 29.81 in 10.0 mi ESE 12.7 mph 27.6 mph 0.00 in   Overcast
7:53 PM 44.1 °F 39.0 °F 34.0 °F 68% 29.80 in 10.0 mi ESE 9.2 mph - N/A   Overcast
8:53 PM 44.1 °F 40.8 °F 34.0 °F 68% 29.80 in 10.0 mi East 5.8 mph - N/A   Overcast
9:53 PM 44.1 °F 40.8 °F 33.1 °F 65% 29.80 in 10.0 mi East 5.8 mph - N/A   Overcast
10:53 PM 44.1 °F 40.8 °F 33.1 °F 65% 29.78 in 10.0 mi East 5.8 mph - N/A   Overcast
11:53 PM 43.0 °F 39.5 °F 34.0 °F 71% 29.77 in 10.0 mi East 5.8 mph - N/A   Overcast